CW6981 Weather Reports


time (UTC)temp
C
wind
direction
speed
KPH
gust
KPH
rain 1hr
cm
rain 24hr
cm
rain mn
cm
humidity
%
barometer
mb
20220629044037 26 207 0.0 3.2 0.00 0.00 0.00 27 1023.4
20220629043536 26 181 0.0 3.2 0.00 0.00 0.00 27 1023.4
20220629043035 26 164 0.0 3.2 0.00 0.00 0.00 26 1023.5
20220629042529 26 138 0.0 1.6 0.00 0.00 0.00 26 1023.4
20220629042042 26 138 0.0 1.6 0.00 0.00 0.00 26 1023.3
20220629041534 26 137 0.0 1.6 0.00 0.00 0.00 26 1023.4
20220629041034 26 137 0.0 1.6 0.00 0.00 0.00 25 1023.3
20220629040527 26 137 0.0 1.6 0.00 0.00 0.00 26 1023.1
20220629040038 26 137 0.0 1.6 0.00 0.00 0.00 25 1023.1
20220629035532 26 158 0.0 1.6 0.00 0.00 0.00 26 1023.0
20220629035045 26 158 0.0 1.6 0.00 0.00 0.00 25 1023.1
20220629034537 26 158 0.0 1.6 0.00 0.00 0.00 25 1023.0
20220629034035 27 158 0.0 1.6 0.00 0.00 0.00 25 1023.0
20220629033533 27 112 0.0 1.6 0.00 0.00 0.00 25 1023.0
20220629033025 27 112 0.0 1.6 0.00 0.00 0.00 24 1023.0
20220629032526 27 112 0.0 1.6 0.00 0.00 0.00 24 1022.9
20220629032042 27 112 0.0 1.6 0.00 0.00 0.00 24 1022.9
20220629031532 27 112 0.0 1.6 0.00 0.00 0.00 24 1022.9
20220629031033 27 112 0.0 3.2 0.00 0.00 0.00 24 1022.9
20220629030529 27 114 0.0 3.2 0.00 0.00 0.00 23 1022.8
20220629030042 27 230 0.0 1.6 0.00 0.00 0.00 23 1022.7
20220629025542 27 230 0.0 1.6 0.00 0.00 0.00 24 1022.6
20220629025038 27 152 0.0 1.6 0.00 0.00 0.00 25 1022.6
20220629024528 27 152 0.0 1.6 0.00 0.00 0.00 25 1022.5
20220629024028 28 152 0.0 1.6 0.00 0.00 0.00 24 1022.4
20220629023543 28 152 0.0 3.2 0.00 0.00 0.00 24 1022.4
20220629023033 28 152 0.0 3.2 0.00 0.00 0.00 24 1022.3
20220629022533 28 154 0.0 1.6 0.00 0.00 0.00 24 1022.3
20220629022034 28 150 0.0 1.6 0.00 0.00 0.00 24 1022.3
20220629021527 28 150 0.0 1.6 0.00 0.00 0.00 25 1022.2
20220629021039 28 150 0.0 1.6 0.00 0.00 0.00 24 1022.2
20220629020533 28 150 0.0 3.2 0.00 0.00 0.00 24 1022.2
20220629020033 28 225 1.6 3.2 0.00 0.00 0.00 24 1022.2
20220629015544 28 176 0.0 1.6 0.00 0.00 0.00 24 1022.1
20220629015038 28 181 0.0 1.6 0.00 0.00 0.00 24 1022.1
20220629014536 28 100 0.0 1.6 0.00 0.00 0.00 24 1022.1
20220629014029 28 100 0.0 1.6 0.00 0.00 0.00 24 1022.1
20220629013542 28 100 0.0 1.6 0.00 0.00 0.00 24 1022.0
20220629013042 28 101 0.0 1.6 0.00 0.00 0.00 24 1022.2
20220629012536 28 85 0.0 1.6 0.00 0.00 0.00 25 1022.2
20220629012030 28 85 0.0 1.6 0.00 0.00 0.00 27 1022.2
20220629011527 28 85 0.0 0.0 0.00 0.00 0.00 26 1022.2
20220629011040 28 85 0.0 0.0 0.00 0.00 0.00 26 1022.2
20220629010535 28 85 0.0 0.0 0.00 0.00 0.00 25 1022.2
20220629010028 29 85 0.0 0.0 0.00 0.00 0.00 27 1022.2
20220629005538 29 85 0.0 1.6 0.00 0.00 0.00 28 1022.2
20220629005050 29 85 0.0 1.6 0.00 0.00 0.00 26 1022.3
20220629004547 29 85 0.0 1.6 0.00 0.00 0.00 26 1022.2
20220629004040 29 85 0.0 0.0 0.00 0.00 0.00 29 1022.2
20220629003530 29 85 0.0 0.0 0.00 0.00 0.00 27 1022.3
20220629003025 30 85 0.0 1.6 0.00 0.00 0.00 29 1022.3
20220629002540 30 85 0.0 1.6 0.00 0.00 0.00 27 1022.3
20220629002032 30 85 0.0 1.6 0.00 0.00 0.00 25 1022.3
20220629001531 30 85 0.0 0.0 0.00 0.00 0.00 25 1022.3
20220629001029 30 85 0.0 1.6 0.00 0.00 0.00 25 1022.4
20220629000539 30 85 0.0 1.6 0.00 0.00 0.00 26 1022.3
20220629000029 30 85 0.0 0.0 0.00 0.00 0.00 23 1022.3
20220628235544 30 85 0.0 1.6 0.00 0.00 0.00 21 1022.3
20220628235026 30 85 0.0 1.6 0.00 0.00 0.00 18 1022.3
20220628234538 31 85 0.0 1.6 0.00 0.00 0.00 20 1022.4
20220628234047 31 85 0.0 1.6 0.00 0.00 0.00 22 1022.4
20220628233546 32 73 0.0 3.2 0.00 0.00 0.00 22 1022.5
20220628233035 32 73 0.0 3.2 0.00 0.00 0.00 20 1022.5
20220628232527 32 83 0.0 3.2 0.00 0.00 0.00 19 1022.5
20220628232026 32 81 0.0 1.6 0.00 0.00 0.00 16 1022.6
20220628231538 32 81 0.0 1.6 0.00 0.00 0.00 18 1022.6
20220628231030 32 81 0.0 6.4 0.00 0.00 0.00 17 1022.6
20220628230527 32 81 3.2 6.4 0.00 0.00 0.00 16 1022.7
20220628230038 32 37 1.6 3.2 0.00 0.00 0.00 20 1022.7
20220628225530 33 37 0.0 1.6 0.00 0.00 0.00 17 1022.7
20220628225028 33 37 0.0 3.2 0.00 0.00 0.00 15 1022.8
20220628224536 33 31 0.0 3.2 0.00 0.00 0.00 17 1022.8
20220628224048 33 256 0.0 3.2 0.00 0.00 0.00 19 1022.9
20220628223545 33 255 1.6 3.2 0.00 0.00 0.00 17 1022.9
20220628223042 33 255 0.0 1.6 0.00 0.00 0.00 17 1023.0
20220628222535 33 255 1.6 4.8 0.00 0.00 0.00 18 1023.0
20220628222035 33 254 1.6 4.8 0.00 0.00 0.00 17 1023.1
20220628221526 33 257 1.6 4.8 0.00 0.00 0.00 17 1023.1
20220628221039 33 259 1.6 4.8 0.00 0.00 0.00 16 1023.1
20220628220540 33 92 0.0 6.4 0.00 0.00 0.00 18 1023.2
20220628220039 32 91 0.0 8.0 0.00 0.00 0.00 18 1023.2
20220628215530 32 100 4.8 8.0 0.00 0.00 0.00 17 1023.2
20220628215041 32 94 1.6 8.0 0.00 0.00 0.00 17 1023.2
20220628214536 32 79 0.0 8.0 0.00 0.00 0.00 17 1023.4
20220628214032 33 85 1.6 8.0 0.00 0.00 0.00 14 1023.4
20220628213544 32 69 1.6 4.8 0.00 0.00 0.00 16 1023.4
20220628213036 31 41 0.0 4.8 0.00 0.00 0.00 18 1023.4
20220628212536 32 75 0.0 4.8 0.00 0.00 0.00 18 1023.5
20220628212029 33 75 1.6 4.8 0.00 0.00 0.00 15 1023.5
20220628211539 32 74 1.6 6.4 0.00 0.00 0.00 19 1023.6
20220628211040 32 82 3.2 6.4 0.00 0.00 0.00 15 1023.6
20220628210536 32 76 0.0 6.4 0.00 0.00 0.00 17 1023.5
20220628210030 32 72 1.6 6.4 0.00 0.00 0.00 16 1023.5
20220628205527 32 73 1.6 6.4 0.00 0.00 0.00 17 1023.5
20220628205040 32 78 3.2 6.4 0.00 0.00 0.00 15 1023.5
20220628204532 32 87 3.2 6.4 0.00 0.00 0.00 16 1023.6
20220628204035 32 100 1.6 9.7 0.00 0.00 0.00 17 1023.5
20220628203530 32 80 0.0 9.7 0.00 0.00 0.00 15 1023.6
20220628203040 32 79 1.6 6.4 0.00 0.00 0.00 16 1023.7
20220628202535 32 110 1.6 8.0 0.00 0.00 0.00 18 1023.7
20220628202034 32 69 4.8 8.0 0.00 0.00 0.00 17 1023.7
20220628201530 32 79 1.6 3.2 0.00 0.00 0.00 15 1023.8
20220628201029 32 93 0.0 6.4 0.00 0.00 0.00 17 1023.8
20220628200542 32 94 3.2 6.4 0.00 0.00 0.00 16 1023.9
20220628200036 31 235 1.6 4.8 0.00 0.00 0.00 19 1023.9
20220628195534 31 70 1.6 4.8 0.00 0.00 0.00 18 1024.0
20220628195036 31 104 1.6 6.4 0.00 0.00 0.00 21 1024.0
20220628194530 30 68 3.2 6.4 0.00 0.00 0.00 19 1024.1
20220628194044 31 85 1.6 8.0 0.00 0.00 0.00 18 1024.2
20220628193534 31 77 3.2 8.0 0.00 0.00 0.00 19 1024.2
20220628193029 31 89 1.6 8.0 0.00 0.00 0.00 17 1024.2
20220628192539 31 86 3.2 8.0 0.00 0.00 0.00 17 1024.1
20220628192030 31 82 1.6 8.0 0.00 0.00 0.00 18 1024.3
20220628191532 31 128 1.6 9.7 0.00 0.00 0.00 21 1024.4
20220628191024 31 74 4.8 9.7 0.00 0.00 0.00 19 1024.4
20220628190539 31 82 1.6 4.8 0.00 0.00 0.00 18 1024.4
20220628190037 30 67 0.0 4.8 0.00 0.00 0.00 21 1024.5
20220628185528 30 55 0.0 3.2 0.00 0.00 0.00 19 1024.5
20220628185041 30 55 1.6 9.7 0.00 0.00 0.00 18 1024.6
20220628184537 30 81 1.6 9.7 0.00 0.00 0.00 21 1024.7
20220628184029 30 77 1.6 3.2 0.00 0.00 0.00 22 1024.7
20220628183540 30 120 1.6 3.2 0.00 0.00 0.00 20 1024.7
20220628183036 30 121 1.6 8.0 0.00 0.00 0.00 20 1024.7
20220628182542 30 77 0.0 8.0 0.00 0.00 0.00 20 1024.8
20220628182033 30 103 0.0 9.7 0.00 0.00 0.00 21 1024.8
20220628181529 30 40 3.2 9.7 0.00 0.00 0.00 21 1024.8
20220628181026 30 75 1.6 8.0 0.00 0.00 0.00 22 1024.8
20220628180539 30 76 1.6 8.0 0.00 0.00 0.00 23 1024.8
20220628180036 30 75 3.2 6.4 0.00 0.00 0.00 22 1024.8
20220628175527 30 87 3.2 8.0 0.00 0.00 0.00 25 1024.8
20220628175038 30 69 1.6 8.0 0.00 0.00 0.00 23 1024.9
20220628174535 29 114 3.2 6.4 0.00 0.00 0.00 27 1024.9
20220628174046 30 202 3.2 6.4 0.00 0.00 0.00 23 1024.9
20220628173537 29 274 1.6 6.4 0.00 0.00 0.00 25 1024.9
20220628173029 29 77 1.6 4.8 0.00 0.00 0.00 26 1025.0
20220628172541 29 77 3.2 4.8 0.00 0.00 0.00 26 1025.0
20220628172033 29 91 3.2 6.4 0.00 0.00 0.00 28 1025.0
20220628171529 28 82 0.0 6.4 0.00 0.00 0.00 30 1025.0
20220628171040 28 73 1.6 6.4 0.00 0.00 0.00 27 1025.0
20220628170531 28 83 3.2 6.4 0.00 0.00 0.00 30 1025.1
20220628170028 28 86 1.6 6.4 0.00 0.00 0.00 26 1025.1
20220628165526 28 78 0.0 6.4 0.00 0.00 0.00 28 1025.1
20220628165043 28 83 3.2 6.4 0.00 0.00 0.00 28 1025.1
20220628164543 28 82 1.6 6.4 0.00 0.00 0.00 29 1025.1
20220628164037 28 85 3.2 6.4 0.00 0.00 0.00 33 1025.1
20220628163532 27 81 1.6 6.4 0.00 0.00 0.00 30 1025.1
20220628163041 27 77 1.6 6.4 0.00 0.00 0.00 32 1025.1
20220628162531 27 82 1.6 6.4 0.00 0.00 0.00 31 1025.1
20220628162034 27 75 0.0 3.2 0.00 0.00 0.00 33 1025.2
20220628161544 27 75 0.0 3.2 0.00 0.00 0.00 30 1025.2
20220628161035 27 75 1.6 6.4 0.00 0.00 0.00 33 1025.2
20220628160533 27 75 4.8 6.4 0.00 0.00 0.00 34 1025.3
20220628160043 27 116 1.6 6.4 0.00 0.00 0.00 32 1025.3
20220628155532 27 78 1.6 3.2 0.00 0.00 0.00 33 1025.3
20220628155034 27 78 0.0 3.2 0.00 0.00 0.00 30 1025.3
20220628154544 27 74 1.6 3.2 0.00 0.00 0.00 33 1025.3
20220628154035 26 70 1.6 3.2 0.00 0.00 0.00 32 1025.4
20220628153533 26 70 0.0 3.2 0.00 0.00 0.00 32 1025.4
20220628153038 26 70 1.6 3.2 0.00 0.00 0.00 34 1025.4
20220628152529 24 59 0.0 4.8 0.00 0.00 0.00 35 1025.5
20220628152028 23 59 1.6 4.8 0.00 0.00 0.00 35 1025.5
20220628151536 23 69 0.0 1.6 0.00 0.00 0.00 37 1025.6
20220628151028 23 69 0.0 1.6 0.00 0.00 0.00 39 1025.6
20220628150527 22 58 0.0 3.2 0.00 0.00 0.00 40 1025.6
20220628150036 22 58 0.0 3.2 0.00 0.00 0.00 42 1025.7
20220628145535 22 58 0.0 3.2 0.00 0.00 0.00 44 1025.6
20220628145033 22 56 0.0 3.2 0.00 0.00 0.00 45 1025.7
20220628144529 21 46 1.6 3.2 0.00 0.00 0.00 46 1025.7
20220628144040 21 19 0.0 3.2 0.00 0.00 0.00 46 1025.7
20220628143537 20 19 1.6 3.2 0.00 0.00 0.00 45 1025.8
20220628143027 20 332 0.0 3.2 0.00 0.00 0.00 45 1025.8
20220628142528 20 332 0.0 3.2 0.00 0.00 0.00 47 1025.8
20220628142029 19 295 0.0 1.6 0.00 0.00 0.00 50 1025.8
20220628141540 18 294 0.0 1.6 0.00 0.00 0.00 49 1025.8
20220628141035 18 294 0.0 1.6 0.00 0.00 0.00 48 1025.8
20220628140537 17 294 0.0 1.6 0.00 0.00 0.00 53 1025.8
20220628140027 17 294 0.0 1.6 0.00 0.00 0.00 54 1025.8
20220628135538 16 294 0.0 1.6 0.00 0.00 0.00 56 1025.9
20220628135035 16 294 0.0 0.0 0.00 0.00 0.00 58 1025.9
20220628134528 16 294 0.0 1.6 0.00 0.00 0.00 58 1025.8
20220628134041 15 294 0.0 1.6 0.00 0.00 0.00 63 1025.8
20220628133538 15 295 0.0 1.6 0.00 0.00 0.00 72 1025.8
20220628133029 15 295 0.0 1.6 0.00 0.00 0.00 81 1025.8
20220628132541 14 295 0.0 1.6 0.00 0.00 0.00 78 1025.8
20220628132045 13 295 0.0 1.6 0.00 0.00 0.00 80 1025.8
20220628131540 13 295 0.0 1.6 0.00 0.00 0.00 78 1025.8
20220628131032 13 295 0.0 1.6 0.00 0.00 0.00 77 1025.8
20220628130532 13 295 0.0 3.2 0.00 0.00 0.00 80 1025.9
20220628130044 12 295 0.0 3.2 0.00 0.00 0.00 80 1025.8
20220628125539 12 294 0.0 1.6 0.00 0.00 0.00 79 1025.8
20220628125042 12 294 0.0 0.0 0.00 0.00 0.00 79 1025.8
20220628124541 12 294 0.0 0.0 0.00 0.00 0.00 77 1025.8
20220628124038 12 294 0.0 1.6 0.00 0.00 0.00 78 1025.8
20220628123532 11 294 0.0 1.6 0.00 0.00 0.00 77 1025.8
20220628123040 11 294 0.0 1.6 0.00 0.00 0.00 77 1025.8
20220628122540 11 294 0.0 1.6 0.00 0.00 0.00 76 1025.8
20220628122037 11 294 0.0 0.0 0.00 0.00 0.00 73 1025.9
20220628121547 11 294 0.0 1.6 0.00 0.00 0.00 75 1025.8
20220628121045 11 294 0.0 1.6 0.00 0.00 0.00 74 1025.9
20220628120538 11 294 0.0 1.6 0.00 0.00 0.00 73 1025.9
20220628120030 11 294 0.0 1.6 0.00 0.00 0.00 73 1025.9
20220628115529 12 294 0.0 0.0 0.00 0.00 0.00 73 1025.9
20220628115044 12 294 0.0 1.6 0.00 0.00 0.00 72 1025.9
20220628114538 12 294 0.0 1.6 0.00 0.00 0.00 73 1025.9
20220628114038 12 294 0.0 1.6 0.00 0.00 0.00 72 1025.9
20220628113533 12 294 0.0 0.0 0.00 0.00 0.00 72 1025.9
20220628113023 12 294 0.0 0.0 0.00 0.00 0.00 71 1025.9
20220628112527 12 294 0.0 1.6 0.00 0.00 0.00 71 1026.0
20220628112040 12 294 0.0 1.6 0.00 0.00 0.00 72 1026.0
20220628111534 12 294 0.0 3.2 0.00 0.00 0.00 71 1025.9
20220628111034 12 294 0.0 3.2 0.00 0.00 0.00 71 1025.9
20220628110535 12 294 0.0 1.6 0.00 0.00 0.00 70 1025.9
20220628110028 12 294 0.0 1.6 0.00 0.00 0.00 71 1026.0
20220628105527 12 294 0.0 1.6 0.00 0.00 0.00 71 1026.0
20220628105044 12 294 0.0 3.2 0.00 0.00 0.00 71 1026.0
20220628104537 12 294 1.6 3.2 0.00 0.00 0.00 71 1025.8
20220628104036 12 293 0.0 1.6 0.00 0.00 0.00 69 1025.9
20220628103536 12 293 0.0 0.0 0.00 0.00 0.00 71 1025.9
20220628103030 12 293 0.0 0.0 0.00 0.00 0.00 68 1025.9
20220628102544 12 293 0.0 1.6 0.00 0.00 0.00 67 1025.9
20220628102038 12 293 0.0 1.6 0.00 0.00 0.00 68 1025.9
20220628101531 12 293 0.0 1.6 0.00 0.00 0.00 68 1025.9
20220628101029 12 293 0.0 1.6 0.00 0.00 0.00 70 1025.9
20220628100542 12 293 0.0 0.0 0.00 0.00 0.00 73 1026.0
20220628100025 12 293 0.0 0.0 0.00 0.00 0.00 73 1026.0
20220628095538 12 293 0.0 1.6 0.00 0.00 0.00 70 1026.0
20220628095031 12 293 0.0 1.6 0.00 0.00 0.00 73 1026.1
20220628094532 12 293 0.0 0.0 0.00 0.00 0.00 74 1026.1
20220628094027 12 293 0.0 1.6 0.00 0.00 0.00 73 1026.2
20220628093545 12 293 0.0 1.6 0.00 0.00 0.00 72 1026.2
20220628093041 12 293 0.0 1.6 0.00 0.00 0.00 72 1026.3
20220628092533 12 293 0.0 1.6 0.00 0.00 0.00 72 1026.4
20220628092041 12 293 0.0 1.6 0.00 0.00 0.00 72 1026.4
20220628091541 13 293 0.0 0.0 0.00 0.00 0.00 71 1026.4
20220628091031 13 293 0.0 0.0 0.00 0.00 0.00 70 1026.5
20220628090542 13 293 0.0 0.0 0.00 0.00 0.00 70 1026.5
20220628090042 13 293 0.0 0.0 0.00 0.00 0.00 70 1026.6
20220628085540 13 293 0.0 0.0 0.00 0.00 0.00 70 1026.5
20220628085032 13 293 0.0 0.0 0.00 0.00 0.00 69 1026.6
20220628084528 13 293 0.0 1.6 0.00 0.00 0.00 69 1026.6
20220628084042 13 293 0.0 1.6 0.00 0.00 0.00 69 1026.7
20220628083537 13 293 0.0 0.0 0.00 0.00 0.00 68 1026.6
20220628083034 14 293 0.0 0.0 0.00 0.00 0.00 69 1026.7
20220628082532 14 293 0.0 0.0 0.00 0.00 0.00 69 1026.7
20220628082045 14 293 0.0 0.0 0.00 0.00 0.00 69 1026.8
20220628081535 14 293 0.0 0.0 0.00 0.00 0.00 69 1026.8
20220628081044 14 293 0.0 0.0 0.00 0.00 0.00 68 1026.7
20220628080543 14 293 0.0 0.0 0.00 0.00 0.00 68 1026.8
20220628080032 15 293 0.0 0.0 0.00 0.00 0.00 68 1026.8
20220628075545 15 293 0.0 0.0 0.00 0.00 0.00 67 1026.9
20220628075044 15 293 0.0 0.0 0.00 0.00 0.00 67 1026.7
20220628074533 15 293 0.0 0.0 0.00 0.00 0.00 66 1026.8
20220628074045 15 293 0.0 0.0 0.00 0.00 0.00 67 1027.0
20220628073545 15 293 0.0 0.0 0.00 0.00 0.00 66 1027.0
20220628073034 15 293 0.0 0.0 0.00 0.00 0.00 64 1027.0
20220628072527 15 293 0.0 0.0 0.00 0.00 0.00 63 1027.0
20220628072028 16 293 0.0 0.0 0.00 0.00 0.00 63 1027.1
20220628071540 16 293 0.0 0.0 0.00 0.00 0.00 62 1027.1
20220628071033 16 293 0.0 0.0 0.00 0.00 0.00 61 1027.1
20220628070526 16 293 0.0 0.0 0.00 0.00 0.00 61 1027.3
20220628070042 16 293 0.0 0.0 0.00 0.00 0.00 61 1027.3
20220628065534 16 293 0.0 0.0 0.00 0.00 0.00 60 1027.3
20220628065031 17 293 0.0 0.0 0.00 0.00 0.00 60 1027.4
20220628064526 17 293 0.0 0.0 0.00 0.00 0.00 59 1027.5
20220628064040 17 293 0.0 0.0 0.00 0.00 0.00 59 1027.5
20220628063540 17 293 0.0 0.0 0.00 0.00 0.00 58 1027.6
20220628063029 17 293 0.0 0.0 0.00 0.00 0.00 57 1027.6
20220628062540 17 293 0.0 0.0 0.00 0.00 0.00 55 1027.6
20220628062043 18 293 0.0 0.0 0.00 0.00 0.00 54 1027.7
20220628061536 18 293 0.0 0.0 0.00 0.00 0.00 54 1027.7
20220628061027 18 293 0.0 1.6 0.00 0.00 0.00 54 1027.8
20220628060537 18 293 0.0 3.2 0.00 0.00 0.00 55 1027.9
20220628060046 18 293 0.0 3.2 0.00 0.00 0.00 53 1028.0
20220628055545 19 293 0.0 0.0 0.00 0.00 0.00 52 1028.0
20220628055035 19 293 0.0 1.6 0.00 0.00 0.00 53 1028.0
20220628054544 19 293 0.0 1.6 0.00 0.00 0.00 52 1028.1
20220628054041 20 293 0.0 0.0 0.00 0.00 0.00 53 1028.2
20220628053532 20 293 0.0 0.0 0.00 0.00 0.00 51 1028.2
20220628053024 20 293 0.0 0.0 0.00 0.00 0.00 50 1028.1
20220628052528 20 293 0.0 0.0 0.00 0.00 0.00 50 1028.1
20220628052041 20 293 0.0 1.6 0.00 0.00 0.00 50 1028.1
20220628051531 20 293 0.0 1.6 0.00 0.00 0.00 49 1028.1
20220628051028 20 293 0.0 1.6 0.00 0.00 0.00 49 1028.2
20220628050535 20 293 0.0 0.0 0.00 0.00 0.00 49 1028.2
20220628050026 20 293 0.0 1.6 0.00 0.00 0.00 48 1028.1
20220628045528 20 293 0.0 3.2 0.00 0.00 0.00 48 1028.1
20220628045041 20 293 0.0 3.2 0.00 0.00 0.00 47 1028.1
20220628044531 20 296 0.0 3.2 0.00 0.00 0.00 47 1028.2